Terug naar catalogus

DELTA 1 DEB

ActiefPO
NORAD 42654·DEBRIS·🇺🇸 United States

Gelanceerd Jun 12, 1975 vanaf Vandenberg Space Force Base

Loading…

Volgende Passages (komende 24 uur)

TLE

VerouderendSource: Space-Track

Epoch: Sep 5, 2026, 00:56 UTC

1 42654U 75052MP  26248.03919164  .00000013  00000-0  16197-3 0  9996
2 42654  99.7394 169.8665 0275584 348.8194  74.4405 12.91929325 36357

Volg DELTA 1 DEB in realtime met AllMySat

Download on the App Store